Location: Choisy
(48.7685°N, 2.4187°E)
Time: 05:13:23
(UTC+00:00)

BlueWalker 3 - Pass Details

Date: 28 February 2024
Orbit: 485 x 495 km, 53.2° (Epoch: 24 April)

Event Time Altitude Azimuth Distance (km) Brightness Sun altitude
Rises 18:33:53 0° 289° (WNW) 2,565 7.1 -11.1°
Reaches altitude 10° 18:36:08 10° 296° (WNW) 1,679 5.7 -11.4°
Maximum altitude 18:39:48 46° 11° (N) 660 2.4 -12.0°
Enters shadow 18:42:09 20° 78° (ENE) 1,191 3.2 -12.4°
